Regional Weather Roundup
Issued by NWS New Orleans/Baton Rouge, LA

Home | Current Version | Previous Version | Text Only | Print | Product List | Glossary On
Versions: 1 2 3 4 5 6 7 8 9 10 11 12 13 14 15 16 17 18 19 20 21 22 23 24 25 26 27 28 29 30 31 32 33 34 35 36 37 38 39 40 41 42 43 44 45 46 47 48 49 50
973
ASUS44 KLIX 270110
RWRLIX
NEW ORLEANS REGIONAL WEATHER ROUNDUP
NATIONAL WEATHER SERVICE NEW ORLEANS LA
800 PM CDT TUE AUG 26 2014

NOTE: "FAIR" INDICATES FEW OR NO CLOUDS BELOW 12,000 FEET WITH NO
      SIGNIFICANT WEATHER AND/OR OBSTRUCTIONS TO VISIBILITY.
      SKY/WX - SKY CONDITION AND SIGNIFICANT WEATHER.
      TMP - AIR TEMPERATURE.     DP    - DEWPOINT TEMPERATURE.
      RH  - RELATIVE HUMIDITY.   PRES  - PRESSURE.
      HI  - HEAT INDEX.          WCI   - WIND CHILL INDEX.

*  THESE STATIONS ARE NOT NWS OR FAA STATIONS AND ARE NOT UNDER
   NWS QUALITY CONTROL.

LAZ038-040-048-061>063-065>067-069-270200-
SOUTHEAST LOUISIANA

CITY           SKY/WX    TMP DP  RH WIND       PRES   REMARKS
N.O. AUDUBON     N/A     85  72  66 MISG        N/A
N.O. INTL ARPT CLOUDY    84  70  62 E6        29.96R
N.O. LAKEFRONT CLOUDY    84  73  69 E8        29.97R
N.O. DOWNTOWN*   N/A     84  70  61 SE3       29.97R
SLIDELL        CLOUDY    82  73  74 SE3       29.96S
BATON ROUGE    MOCLDY    81  74  79 E3        29.96R
BOOTHVILLE     CLOUDY    83  75  77 E9        29.95S
BELLE CHASSE   CLOUDY    82  71  69 E6        29.95S
BOGALUSA*        N/A     78  71  80 CALM      29.98S
GALLIANO*      NOT AVBL
NEW ROADS*       N/A     78  72  82 CALM      29.96S
GONZALES*        N/A     80  79  98 CALM      29.95S
HAMMOND*       MOCLDY    82  72  69 CALM      29.98S
HOUMA*         CLOUDY    80  70  71 E5        29.95S
PORT FOURCHON* PTCLDY    82  75  78 E12       29.95F

$$

MSZ070-080>082-270200-
SOUTHERN MISSISSIPPI

CITY           SKY/WX    TMP DP  RH WIND       PRES   REMARKS
MCCOMB         MOCLDY    82  64  54 CALM      29.99R
GULFPORT       MOCLDY    84  73  69 SE7       29.96S
BILOXI         MOCLDY    84  73  69 SE5       29.97R
PASCAGOULA     MOCLDY    79  73  82 S3        29.97S
STENNIS ARPT*  CLEAR    N/A N/A N/A CALM      29.97S

$$

COASTAL OBSERVATIONS
LAKE AND NEARSHORE STATIONS

STATION/POSITION TIME  TEMP    WIND        PRES    WAVE
                       AIR SEA DIR/SP/G            HT/PER
                 (UTC) (F)     (DEG/KT/KT) (MB)    (FT/S)
PASCAGOULA       0100   84     130/  8/ 10 1014.4
WAVELAND YACHT   0100   84     130/ 10/ 12 1014.2
GRAND ISLE       0100   83 85   80/ 10/ 15 1014.6
SOUTHWEST PASS   0100   85 88   80/ 16/ 18 1014.2
NEW CANAL        0100   83 85   CALM  /  3 1015.0
SHELL BEACH      0100   83 82  100/ 10/ 12 1014.4

OFFSHORE STATIONS

STATION/POSITION TIME  TEMP    WIND        PRES    WAVE
                       AIR SEA DIR/SP/G            HT/PER
                 (UTC) (F)     (DEG/KT/KT) (MB)    (FT/S)
64 S DAUPHIN ISL 0000   84 86   80/ 17/ 19 1014.4

$$




USA.gov is the U.S. government's official web portal to all federal, state and local government web resources and services.